Tracking 18843 objects as of 20-November-2017
HD Live streaming from Space Station
objects crossing your sky now

FENGYUN 1C DEB

Track FENGYUN 1C DEB now!
10-day predictions


NORAD ID: 30478
Int'l Code: 1999-025AGR
Perigee: 614.4 km
Apogee: 698.2 km
Inclination: 98.9 °
Period: 97.7 minutes
Semi major axis: 7027 km
RCS: 0.032 m2 (small)
Launch date: May 10, 1999
Source: People's Republic of China (PRC)
Launch site: Taiyaun Space Center, China (TSC)

Note: This is SATELLITE DEBRIS
aabbcc
Your satellite tracking list
Your tracking list is empty




NASA's NSSDC Master Catalog

Two Line Element Set (TLE):
1 30478U 99025AGR 17323.45672216  .00004800  00000-0  72349-3 0  9996
2 30478  98.9217 236.1372 0059600   3.5745  55.5938 14.73734064570598
Source of the keplerian elements: AFSPC